Regional Weather Roundup
Issued by NWS

Home | Current Version | Previous Version | Text Only | Print | Product List | Glossary Off
Versions: 1 2 3 4 5 6 7 8 9 10 11 12 13 14 15 16 17 18 19 20 21 22 23 24 25 26 27 28 29 30 31 32 33 34 35 36 37 38 39 40 41 42 43 44 45 46 47 48 49 50

000
ASUS43 KLOT 231409
RWRIL

ILLINOIS REGIONAL WEATHER ROUNDUP
NATIONAL WEATHER SERVICE CHICAGO/ROMEOVILLE IL
900 AM CDT SAT SEP 23 2017

NOTE: "FAIR" INDICATES FEW OR NO CLOUDS BELOW 12,000 FEET WITH NO
SIGNIFICANT WEATHER AND/OR OBSTRUCTIONS TO VISIBILITY.

* THESE STATIONS ARE NOT UNDER NWS QUALITY CONTROL. THEY ALSO MAY NOT
  REPORT WEATHER SUCH AS PRECIPITATION OR FOG.

ILZ001-002-007-009-015-016-024-231500-
NORTHWEST ILLINOIS

CITY           SKY/WX    TMP DP  RH WIND       PRES   REMARKS
MOLINE         SUNNY     78  65  63 CALM      30.07R HX  80
STERLING*      SUNNY     76  68  76 CALM      30.09R
SAVANNA*       MOSUNNY   75  67  76 CALM      30.08S
$$

ILZ003-004-008-010-011-017-018-231500-
NORTH CENTRAL ILLINOIS

CITY           SKY/WX    TMP DP  RH WIND       PRES   REMARKS
ROCKFORD       SUNNY     75  67  76 S3        30.10S
FREEPORT*      MOSUNNY   74  65  74 CALM      30.11S
ROCHELLE*      SUNNY     77  67  71 S3        30.11R
DE KALB*       SUNNY     76  68  76 S5        30.11S
PERU*          SUNNY     75  65  71 CALM      30.10S
$$

ILZ005-006-012>014-019>023-231500-
NORTHEAST ILLINOIS

CITY           SKY/WX    TMP DP  RH WIND       PRES   REMARKS
CHICAGO-OHARE  MOSUNNY   81  66  60 S5        30.10R HX  83
CHICAGO-MIDWAY SUNNY     81  67  62 S5        30.10R HX  83
AURORA         SUNNY     76  69  79 SE5       30.11R
LANSING*       SUNNY     77  70  78 CALM      30.12R
JOLIET*        SUNNY     78  69  74 CALM      30.11R HX  80
WAUKEGAN       SUNNY     80  69  69 S3        30.09S HX  83
DUPAGE AIRPORT SUNNY     77  69  76 S6        30.10R
KANKAKEE*      SUNNY     74  69  82 SE3       30.12R
WHEELING       SUNNY     81  69  67 S6        30.11R HX  84
MORRIS*        SUNNY     76  68  78 SE3       30.09S
ROMEOVILLE*    SUNNY     77  68  74 S3        30.11R
NORTHERLY ISL    N/A     77  67  71 SE3         N/A
$$

LMZ740>746-231500-
SOUTHERN LAKE MICHIGAN

STATION/POSITION SKY/WX   TEMP    WIND        PRES    VSBY  WAVE
                          AIR SEA DIR/SP/G                  HT/PER
                          (F)     (DEG/KT/KT) (MB)    (MI)  (FT/S)
SOUTHERN BUOY              72 70  130/  6/  8 1019.1          0
WILMETTE HARBOR            74 72  130/  4/  4   N/A           0
HARRISON CRIB              76     150/ 11/ 12   N/A
BURNHAM HARBOR             76                   N/A
CALUMET HARBOR             78      90/  3/  4 1018.8R
BURNS HARBOR               78     170/  3/  5 1020.0R
MICHIGAN CITY              76     130/  3/  5   N/A
MICHIGAN CITY 6N           73 71  100/  4/  4   N/A           0
ST. JOSEPH                 73 71  180/  2/  4 1019.8          0
$$

ILZ025>027-034>036-040-047-049-050-058-095>099-231500-
WEST-CENTRAL ILLINOIS

CITY           SKY/WX    TMP DP  RH WIND       PRES   REMARKS
QUINCY         SUNNY     78  65  63 S5        30.07R HX  80
GALESBURG*     SUNNY     75  66  73 S6        30.09R
MACOMB*        SUNNY     74  66  77 CALM      30.10R
JACKSONVILLE*  SUNNY     78  66  65 CALM      30.09R HX  80
PITTSFIELD*    SUNNY     77  67  72 CALM      30.09R
$$

ILZ028>032-037-038-041>044-048-051>054-059>061-231500-
CENTRAL ILLINOIS

CITY           SKY/WX    TMP DP  RH WIND       PRES   REMARKS
PONTIAC        SUNNY     78  71  78 SE3       30.11S HX  80
BLOOMINGTON    SUNNY     78  67  68 S6        30.12R HX  80
DECATUR        SUNNY     77  68  73 CALM      30.11R
PEORIA         SUNNY     77  68  73 CALM      30.09R
LACON*         SUNNY     76  67  72 CALM      30.08S
LINCOLN*       SUNNY     76  69  79 S3        30.10R
SPRINGFIELD    SUNNY     80  68  66 S5        30.09R HX  83
TAYLORVILLE    SUNNY     76  68  74 SE3       30.10R
$$

ILZ033-039-045-046-055>057-062-063-231500-
EAST-CENTRAL ILLINOIS

CITY           SKY/WX    TMP DP  RH WIND       PRES   REMARKS
CHAMPAIGN      SUNNY     80  66  62 SW3       30.12R HX  82
RANTOUL*       SUNNY     78  71  77 CALM      30.12R HX  81
MATTOON        SUNNY     78  69  73 CALM      30.10R HX  80
PARIS*         SUNNY     77  72  84 CALM      30.13R
$$

ILZ079-100>102-231500-
SOUTHWEST ILLINOIS

CITY           SKY/WX    TMP DP  RH WIND       PRES   REMARKS
ALTON          SUNNY     73  68  83 VRB3      30.08R
BELLEVILLE     SUNNY     75  67  77 CALM      30.07R
CAHOKIA*       SUNNY     78  67  68 VRB3      30.07R HX  80
SPARTA*        SUNNY     75  68  78 CALM      30.09R
$$

ILZ064>066-069>071-074>076-080>082-084>086-088>090-092>094-231500-
SOUTH-CENTRAL ILLINOIS

CITY           SKY/WX    TMP DP  RH WIND       PRES   REMARKS
CARBONDALE     SUNNY     74  71  91 CALM      30.08R
CAIRO*         SUNNY     75  71  87 NE3       30.07R
EFFINGHAM*     SUNNY     76  69  78 E3        30.12R
MARION         SUNNY     77  72  83 CALM      30.08R
MT. VERNON       N/A     76  70  82 CALM      30.09R
CENTRALIA*     SUNNY     78  70  75 CALM      30.08S HX  80
SALEM*         SUNNY     78  68  71 CALM      30.09S HX  80
METROPOLIS*    SUNNY     77  70  78 CALM      30.07S
$$

ILZ067-068-072-073-078-083-087-091-231500-
SOUTHEAST ILLINOIS

CITY           SKY/WX    TMP DP  RH WIND       PRES   REMARKS
LAWRENCEVILLE  MOSUNNY   74  71  91 E5        30.11R FOG
FLORA*         SUNNY     78  71  79 E5        30.10R
FAIRFIELD*     SUNNY     77  68  73 CALM      30.09R
HARRISBURG*    SUNNY     76  70  82 CALM      30.09R
ROBINSON*      SUNNY     74  69  85 CALM      30.12R
CARMI*         SUNNY     77  69  78 E5        30.08S
$$

ABBREVIATIONS USED IN REMARKS
   TC - TEMPERATURE IN CELSIUS
  WCI - WIND CHILL INDEX
   HX - HEAT INDEX
  VSB - VISIBILITY
$$





USA.gov is the U.S. government's official web portal to all federal, state and local government web resources and services.